Time,TemperatureF,DewpointF,PressureIn,WindDirection,WindDirectionDegrees,WindSpeedMPH,WindSpeedGustMPH,Humidity,HourlyPrecipIn,Conditions,Clouds,dailyrainin,SoftwareType,DateUTC
2013-05-29 00:02:00,63.0,59.0,-100.00,ENE,75,5.0,11.0,84,0.20,,,-99.99,,2013-05-29 05:02:00,
2013-05-29 00:12:00,63.0,59.0,-100.00,ESE,105,9.0,13.0,86,0.13,,,-99.99,,2013-05-29 05:12:00,
2013-05-29 00:22:00,63.0,59.0,-100.00,South,170,4.0,7.0,87,0.08,,,-99.99,,2013-05-29 05:22:00,
2013-05-29 00:32:00,63.0,59.0,-100.00,SSW,210,2.0,3.0,88,0.14,,,-99.99,,2013-05-29 05:32:00,
2013-05-29 00:42:00,63.0,60.0,-100.00,South,180,7.0,11.0,88,0.08,,,-99.99,,2013-05-29 05:42:00,
2013-05-29 00:52:00,63.0,60.0,-100.00,SSE,155,9.0,18.0,89,0.10,,,-99.99,,2013-05-29 05:52:00,
2013-05-29 01:01:00,63.0,60.0,-100.00,SSE,155,9.0,18.0,89,0.10,,,-99.99,,2013-05-29 06:01:00,
2013-05-29 01:12:00,63.0,60.0,-100.00,South,175,5.0,15.0,89,0.10,,,-99.99,,2013-05-29 06:12:00,
2013-05-29 01:21:00,63.0,60.0,-100.00,SSE,165,4.0,11.0,89,0.00,,,-99.99,,2013-05-29 06:21:00,
2013-05-29 01:31:00,63.0,60.0,-100.00,South,170,9.0,16.0,89,0.07,,,-99.99,,2013-05-29 06:31:00,
2013-05-29 01:42:00,63.0,60.0,-100.00,South,170,9.0,16.0,89,0.07,,,-99.99,,2013-05-29 06:42:00,
2013-05-29 01:51:00,62.0,59.0,-100.00,ESE,120,12.0,20.0,89,0.08,,,-99.99,,2013-05-29 06:51:00,
2013-05-29 02:01:00,62.0,59.0,-100.00,ESE,120,12.0,20.0,89,0.08,,,-99.99,,2013-05-29 07:01:00,
2013-05-29 02:11:00,63.0,60.0,-100.00,ESE,115,9.0,14.0,89,0.00,,,-99.99,,2013-05-29 07:11:00,
2013-05-29 02:21:00,63.0,59.0,-100.00,SE,130,4.0,16.0,86,0.00,,,-99.99,,2013-05-29 07:21:00,
2013-05-29 02:34:00,64.0,59.0,-100.00,SW,230,12.0,35.0,83,0.00,,,-99.99,,2013-05-29 07:34:00,
2013-05-29 02:42:00,64.0,59.0,-100.00,SW,230,12.0,35.0,83,0.00,,,-99.99,,2013-05-29 07:42:00,
2013-05-29 02:52:00,63.0,58.0,-100.00,SSE,155,6.0,14.0,84,0.04,,,-99.99,,2013-05-29 07:52:00,
2013-05-29 03:02:00,63.0,58.0,-100.00,SSE,155,6.0,14.0,84,0.04,,,-99.99,,2013-05-29 08:02:00,
2013-05-29 03:11:00,62.0,58.0,-100.00,SE,135,6.0,11.0,86,0.00,,,-99.99,,2013-05-29 08:11:00,
2013-05-29 03:22:00,62.0,58.0,-100.00,SE,125,6.0,11.0,87,0.00,,,-99.99,,2013-05-29 08:22:00,
2013-05-29 03:32:00,61.0,58.0,-100.00,ESE,110,6.0,9.0,88,0.00,,,-99.99,,2013-05-29 08:32:00,
2013-05-29 03:41:00,61.0,58.0,-100.00,ESE,110,6.0,9.0,88,0.00,,,-99.99,,2013-05-29 08:41:00,
2013-05-29 03:51:00,61.0,58.0,-100.00,ESE,120,6.0,11.0,89,0.00,,,-99.99,,2013-05-29 08:51:00,
2013-05-29 04:01:00,61.0,58.0,-100.00,SSE,155,6.0,13.0,89,0.00,,,-99.99,,2013-05-29 09:01:00,
2013-05-29 04:11:00,61.0,58.0,-100.00,SSE,155,6.0,13.0,89,0.00,,,-99.99,,2013-05-29 09:11:00,
2013-05-29 04:21:00,61.0,58.0,-100.00,SE,145,4.0,9.0,89,0.00,,,-99.99,,2013-05-29 09:21:00,
2013-05-29 04:33:00,61.0,58.0,-100.00,SE,145,4.0,9.0,90,0.00,,,-99.99,,2013-05-29 09:33:00,
2013-05-29 04:42:00,61.0,58.0,-100.00,SE,135,6.0,10.0,90,0.00,,,-99.99,,2013-05-29 09:42:00,
2013-05-29 04:52:00,61.0,58.0,-100.00,SE,130,6.0,11.0,90,0.00,,,-99.99,,2013-05-29 09:52:00,
2013-05-29 05:03:00,61.0,58.0,-100.00,SE,130,6.0,11.0,90,0.00,,,-99.99,,2013-05-29 10:03:00,
2013-05-29 05:12:00,61.0,58.0,-100.00,SE,145,6.0,11.0,90,0.00,,,-99.99,,2013-05-29 10:12:00,
2013-05-29 05:22:00,61.0,58.0,-100.00,SE,125,7.0,12.0,90,0.00,,,-99.99,,2013-05-29 10:22:00,
2013-05-29 05:32:00,61.0,58.0,-100.00,SE,125,6.0,11.0,90,0.00,,,-99.99,,2013-05-29 10:32:00,
2013-05-29 05:42:00,61.0,58.0,-100.00,SE,125,6.0,12.0,90,0.00,,,-99.99,,2013-05-29 10:42:00,
2013-05-29 05:52:00,61.0,58.0,-100.00,SE,125,7.0,12.0,90,0.00,,,-99.99,,2013-05-29 10:52:00,
2013-05-29 06:02:00,61.0,58.0,-100.00,SE,125,7.0,12.0,90,0.00,,,-99.99,,2013-05-29 11:02:00,
2013-05-29 06:12:00,61.0,58.0,-100.00,SE,135,4.0,10.0,90,0.00,,,-99.99,,2013-05-29 11:12:00,
2013-05-29 06:22:00,61.0,58.0,-100.00,SE,135,4.0,10.0,90,0.00,,,-99.99,,2013-05-29 11:22:00,
2013-05-29 06:32:00,62.0,59.0,-100.00,SE,140,5.0,10.0,90,0.00,,,-99.99,,2013-05-29 11:32:00,
2013-05-29 06:42:00,62.0,59.0,-100.00,SE,140,5.0,10.0,90,0.00,,,-99.99,,2013-05-29 11:42:00,
2013-05-29 06:52:00,62.0,59.0,-100.00,SE,145,6.0,11.0,90,0.00,,,-99.99,,2013-05-29 11:52:00,
2013-05-29 07:01:00,62.0,59.0,-100.00,SE,145,6.0,11.0,90,0.00,,,-99.99,,2013-05-29 12:01:00,
2013-05-29 07:11:00,62.0,59.0,-100.00,SE,125,6.0,11.0,90,0.00,,,-99.99,,2013-05-29 12:11:00,
2013-05-29 07:21:00,62.0,59.0,-100.00,SE,125,6.0,11.0,90,0.00,,,-99.99,,2013-05-29 12:21:00,
2013-05-29 07:32:00,63.0,60.0,-100.00,SE,135,6.0,12.0,90,0.00,,,-99.99,,2013-05-29 12:32:00,
2013-05-29 07:42:00,65.0,62.0,-100.00,SSE,160,6.0,20.0,90,0.00,,,-99.99,,2013-05-29 12:42:00,
2013-05-29 07:51:00,65.0,62.0,-100.00,South,170,6.0,13.0,90,0.00,,,-99.99,,2013-05-29 12:51:00,
2013-05-29 08:02:00,65.0,62.0,-100.00,South,170,6.0,13.0,90,0.00,,,-99.99,,2013-05-29 13:02:00,
2013-05-29 08:11:00,65.0,62.0,-100.00,SE,135,7.0,13.0,88,0.00,,,-99.99,,2013-05-29 13:11:00,
2013-05-29 08:21:00,66.0,62.0,-100.00,South,170,6.0,14.0,86,0.00,,,-99.99,,2013-05-29 13:21:00,
2013-05-29 08:32:00,67.0,62.0,-100.00,SSE,160,9.0,14.0,84,0.00,,,-99.99,,2013-05-29 13:32:00,
2013-05-29 08:42:00,67.0,62.0,-100.00,SSE,160,9.0,14.0,84,0.00,,,-99.99,,2013-05-29 13:42:00,
2013-05-29 08:52:00,69.0,63.0,-100.00,South,185,7.0,16.0,82,0.00,,,-99.99,,2013-05-29 13:52:00,
2013-05-29 09:02:00,72.0,63.0,-100.00,SE,145,7.0,16.0,75,0.00,,,-99.99,,2013-05-29 14:02:00,
2013-05-29 09:11:00,72.0,63.0,-100.00,SE,140,6.0,16.0,72,0.00,,,-99.99,,2013-05-29 14:11:00,
2013-05-29 09:21:00,72.0,63.0,-100.00,SE,140,6.0,16.0,72,0.00,,,-99.99,,2013-05-29 14:21:00,
2013-05-29 09:32:00,73.0,63.0,-100.00,SSE,155,9.0,17.0,71,0.00,,,-99.99,,2013-05-29 14:32:00,
2013-05-29 09:42:00,73.0,63.0,-100.00,SSE,160,10.0,19.0,70,0.00,,,-99.99,,2013-05-29 14:42:00,
2013-05-29 09:52:00,73.0,63.0,-100.00,South,185,10.0,17.0,69,0.00,,,-99.99,,2013-05-29 14:52:00,
2013-05-29 10:01:00,73.0,63.0,-100.00,South,185,10.0,17.0,69,0.00,,,-99.99,,2013-05-29 15:01:00,
2013-05-29 10:11:00,74.0,64.0,-100.00,SE,145,9.0,15.0,70,0.00,,,-99.99,,2013-05-29 15:11:00,
2013-05-29 10:21:00,74.0,64.0,-100.00,SSW,200,7.0,14.0,70,0.00,,,-99.99,,2013-05-29 15:21:00,
2013-05-29 10:33:00,76.0,65.0,-100.00,South,175,7.0,16.0,69,0.00,,,-99.99,,2013-05-29 15:33:00,
2013-05-29 10:42:00,76.0,65.0,-100.00,South,175,7.0,16.0,69,0.00,,,-99.99,,2013-05-29 15:42:00,
2013-05-29 10:53:00,77.0,65.0,-100.00,South,185,10.0,19.0,66,0.00,,,-99.99,,2013-05-29 15:53:00,
2013-05-29 11:03:00,77.0,65.0,-100.00,South,185,10.0,19.0,66,0.00,,,-99.99,,2013-05-29 16:03:00,
2013-05-29 11:12:00,76.0,64.0,-100.00,South,190,12.0,19.0,67,0.00,,,-99.99,,2013-05-29 16:12:00,
2013-05-29 11:22:00,76.0,64.0,-100.00,South,190,12.0,19.0,67,0.00,,,-99.99,,2013-05-29 16:22:00,
2013-05-29 11:32:00,76.0,65.0,-100.00,South,180,10.0,18.0,67,0.00,,,-99.99,,2013-05-29 16:32:00,
2013-05-29 11:42:00,78.0,65.0,-100.00,SSW,195,11.0,21.0,65,0.00,,,-99.99,,2013-05-29 16:42:00,
2013-05-29 11:52:00,80.0,67.0,-100.00,South,180,7.0,17.0,65,0.00,,,-99.99,,2013-05-29 16:52:00,
2013-05-29 12:02:00,80.0,67.0,-100.00,South,180,7.0,17.0,65,0.00,,,-99.99,,2013-05-29 17:02:00,
2013-05-29 12:12:00,80.0,67.0,-100.00,SSE,165,10.0,18.0,64,0.00,,,-99.99,,2013-05-29 17:12:00,
2013-05-29 12:22:00,80.0,66.0,-100.00,South,180,11.0,18.0,63,0.00,,,-99.99,,2013-05-29 17:22:00,
2013-05-29 12:32:00,81.0,67.0,-100.00,SSE,155,11.0,17.0,62,0.00,,,-99.99,,2013-05-29 17:32:00,
2013-05-29 12:42:00,81.0,68.0,-100.00,SE,135,6.0,16.0,63,0.00,,,-99.99,,2013-05-29 17:42:00,
2013-05-29 12:52:00,80.0,67.0,-100.00,South,185,7.0,16.0,63,0.00,,,-99.99,,2013-05-29 17:52:00,
2013-05-29 13:01:00,80.0,67.0,-100.00,South,185,7.0,16.0,63,0.00,,,-99.99,,2013-05-29 18:01:00,
2013-05-29 13:13:00,79.0,67.0,-100.00,South,175,9.0,16.0,66,0.07,,,-99.99,,2013-05-29 18:13:00,
2013-05-29 13:22:00,80.0,67.0,-100.00,SSE,150,6.0,17.0,65,0.00,,,-99.99,,2013-05-29 18:22:00,
2013-05-29 13:32:00,80.0,67.0,-100.00,South,180,9.0,16.0,65,0.00,,,-99.99,,2013-05-29 18:32:00,
2013-05-29 13:42:00,80.0,67.0,-100.00,SSW,195,7.0,17.0,65,0.00,,,-99.99,,2013-05-29 18:42:00,
2013-05-29 13:51:00,78.0,67.0,-100.00,South,190,7.0,16.0,68,0.00,,,-99.99,,2013-05-29 18:51:00,
2013-05-29 14:02:00,78.0,67.0,-100.00,South,190,7.0,16.0,68,0.00,,,-99.99,,2013-05-29 19:02:00,
2013-05-29 14:11:00,78.0,67.0,-100.00,South,175,9.0,17.0,69,0.00,,,-99.99,,2013-05-29 19:11:00,
2013-05-29 14:21:00,80.0,68.0,-100.00,SSE,165,11.0,19.0,67,0.00,,,-99.99,,2013-05-29 19:21:00,
2013-05-29 14:32:00,80.0,68.0,-100.00,SSE,160,12.0,20.0,67,0.00,,,-99.99,,2013-05-29 19:32:00,
2013-05-29 14:44:00,78.0,68.0,-100.00,South,180,12.0,20.0,71,0.14,,,-99.99,,2013-05-29 19:44:00,
2013-05-29 14:52:00,79.0,69.0,-100.00,SSE,155,12.0,21.0,71,0.00,,,-99.99,,2013-05-29 19:52:00,
2013-05-29 15:02:00,79.0,69.0,-100.00,SSE,155,12.0,21.0,71,0.00,,,-99.99,,2013-05-29 20:02:00,
2013-05-29 15:11:00,81.0,68.0,-100.00,South,175,11.0,21.0,65,0.00,,,-99.99,,2013-05-29 20:11:00,
2013-05-29 15:22:00,81.0,69.0,-100.00,SSW,210,7.0,22.0,65,0.00,,,-99.99,,2013-05-29 20:22:00,
2013-05-29 15:33:00,82.0,68.0,-100.00,SSE,160,11.0,22.0,62,0.00,,,-99.99,,2013-05-29 20:33:00,
2013-05-29 15:42:00,82.0,68.0,-100.00,SSE,160,11.0,22.0,62,0.00,,,-99.99,,2013-05-29 20:42:00,
2013-05-29 15:52:00,80.0,67.0,-100.00,SSE,155,9.0,21.0,65,0.13,,,-99.99,,2013-05-29 20:52:00,
2013-05-29 16:02:00,81.0,67.0,-100.00,SSE,150,9.0,21.0,62,0.00,,,-99.99,,2013-05-29 21:02:00,
2013-05-29 16:12:00,82.0,66.0,-100.00,South,175,9.0,19.0,60,0.00,,,-99.99,,2013-05-29 21:12:00,
2013-05-29 16:22:00,82.0,66.0,-100.00,South,175,9.0,19.0,60,0.00,,,-99.99,,2013-05-29 21:22:00,
2013-05-29 16:33:00,83.0,65.0,-100.00,South,190,11.0,23.0,55,0.00,,,-99.99,,2013-05-29 21:33:00,
2013-05-29 16:43:00,82.0,63.0,-100.00,South,190,12.0,27.0,53,0.00,,,-99.99,,2013-05-29 21:43:00,
2013-05-29 16:53:00,82.0,63.0,-100.00,SSW,195,13.0,26.0,51,0.00,,,-99.99,,2013-05-29 21:53:00,
2013-05-29 17:03:00,82.0,63.0,-100.00,SSW,195,13.0,26.0,51,0.00,,,-99.99,,2013-05-29 22:03:00,
2013-05-29 17:12:00,83.0,63.0,-100.00,South,175,9.0,21.0,51,0.00,,,-99.99,,2013-05-29 22:12:00,
2013-05-29 17:23:00,81.0,63.0,-100.00,SSW,210,10.0,21.0,53,0.00,,,-99.99,,2013-05-29 22:23:00,
2013-05-29 17:33:00,82.0,62.0,-100.00,South,175,15.0,25.0,50,0.00,,,-99.99,,2013-05-29 22:33:00,
2013-05-29 17:42:00,82.0,62.0,-100.00,South,175,15.0,25.0,50,0.00,,,-99.99,,2013-05-29 22:42:00,
2013-05-29 17:53:00,81.0,61.0,-100.00,SW,220,11.0,26.0,50,0.00,,,-99.99,,2013-05-29 22:53:00,
2013-05-29 18:02:00,81.0,62.0,-100.00,SSW,200,12.0,23.0,50,0.00,,,-99.99,,2013-05-29 23:02:00,
2013-05-29 18:12:00,82.0,62.0,-100.00,South,180,9.0,19.0,51,0.00,,,-99.99,,2013-05-29 23:12:00,
2013-05-29 18:22:00,82.0,62.0,-100.00,South,180,9.0,19.0,51,0.00,,,-99.99,,2013-05-29 23:22:00,
2013-05-29 18:33:00,80.0,62.0,-100.00,SSE,155,9.0,23.0,54,0.00,,,-99.99,,2013-05-29 23:33:00,
2013-05-29 18:42:00,78.0,62.0,-100.00,South,180,9.0,22.0,57,0.00,,,-99.99,,2013-05-29 23:42:00,
2013-05-29 18:52:00,78.0,61.0,-100.00,South,180,14.0,26.0,56,0.00,,,-99.99,,2013-05-29 23:52:00,
2013-05-29 19:01:00,78.0,61.0,-100.00,South,180,14.0,26.0,56,0.00,,,-99.99,,2013-05-30 00:01:00,
2013-05-29 19:11:00,78.0,62.0,-100.00,SSE,165,11.0,24.0,58,0.00,,,-99.99,,2013-05-30 00:11:00,
2013-05-29 19:21:00,78.0,62.0,-100.00,South,180,9.0,22.0,59,0.00,,,-99.99,,2013-05-30 00:21:00,
2013-05-29 19:31:00,77.0,62.0,-100.00,South,190,11.0,19.0,60,0.08,,,-99.99,,2013-05-30 00:31:00,
2013-05-29 19:42:00,77.0,63.0,-100.00,South,170,9.0,21.0,61,0.00,,,-99.99,,2013-05-30 00:42:00,
2013-05-29 19:52:00,76.0,62.0,-100.00,South,190,9.0,16.0,61,0.11,,,-99.99,,2013-05-30 00:52:00,
2013-05-29 20:01:00,76.0,62.0,-100.00,South,190,9.0,16.0,61,0.11,,,-99.99,,2013-05-30 01:01:00,
2013-05-29 20:11:00,76.0,62.0,-100.00,SSE,165,10.0,17.0,61,0.04,,,-99.99,,2013-05-30 01:11:00,
2013-05-29 20:21:00,76.0,62.0,-100.00,SSE,165,10.0,17.0,61,0.04,,,-99.99,,2013-05-30 01:21:00,
2013-05-29 20:32:00,76.0,62.0,-100.00,SSE,165,9.0,17.0,62,0.00,,,-99.99,,2013-05-30 01:32:00,
2013-05-29 20:41:00,76.0,62.0,-100.00,SSE,165,9.0,17.0,62,0.00,,,-99.99,,2013-05-30 01:41:00,
2013-05-29 20:52:00,76.0,62.0,-100.00,South,170,7.0,22.0,61,0.00,,,-99.99,,2013-05-30 01:52:00,
2013-05-29 21:01:00,76.0,62.0,-100.00,South,170,7.0,22.0,61,0.00,,,-99.99,,2013-05-30 02:01:00,
2013-05-29 21:11:00,75.0,62.0,-100.00,South,170,7.0,14.0,63,0.00,,,-99.99,,2013-05-30 02:11:00,
2013-05-29 21:21:00,74.0,62.0,-100.00,SSE,150,7.0,12.0,65,0.00,,,-99.99,,2013-05-30 02:21:00,
2013-05-29 21:32:00,74.0,63.0,-100.00,SE,135,7.0,12.0,67,0.04,,,-99.99,,2013-05-30 02:32:00,
2013-05-29 21:42:00,74.0,63.0,-100.00,SE,135,7.0,12.0,67,0.04,,,-99.99,,2013-05-30 02:42:00,
2013-05-29 21:52:00,74.0,63.0,-100.00,SE,135,7.0,12.0,67,0.04,,,-99.99,,2013-05-30 02:52:00,
2013-05-29 22:01:00,73.0,63.0,-100.00,SSE,150,6.0,11.0,70,0.00,,,-99.99,,2013-05-30 03:01:00,
2013-05-29 22:11:00,74.0,64.0,-100.00,SSE,150,7.0,13.0,71,0.00,,,-99.99,,2013-05-30 03:11:00,
2013-05-29 22:21:00,73.0,64.0,-100.00,SSE,165,8.0,14.0,73,0.08,,,-99.99,,2013-05-30 03:21:00,
2013-05-29 22:33:00,73.0,65.0,-100.00,SE,140,8.0,18.0,74,0.00,,,-99.99,,2013-05-30 03:33:00,
2013-05-29 22:43:00,73.0,65.0,-100.00,SE,140,8.0,18.0,74,0.00,,,-99.99,,2013-05-30 03:43:00,
2013-05-29 22:53:00,74.0,64.0,-100.00,SSE,165,8.0,20.0,71,0.00,,,-99.99,,2013-05-30 03:53:00,
2013-05-29 23:02:00,74.0,64.0,-100.00,SSE,165,8.0,20.0,71,0.00,,,-99.99,,2013-05-30 04:02:00,
2013-05-29 23:12:00,74.0,64.0,-100.00,South,170,8.0,17.0,71,0.00,,,-99.99,,2013-05-30 04:12:00,
2013-05-29 23:23:00,74.0,64.0,-100.00,South,170,8.0,17.0,71,0.00,,,-99.99,,2013-05-30 04:23:00,
2013-05-29 23:33:00,72.0,65.0,-100.00,SSE,150,9.0,19.0,76,0.00,,,-99.99,,2013-05-30 04:33:00,
2013-05-29 23:42:00,72.0,65.0,-100.00,SSE,155,10.0,20.0,77,0.00,,,-99.99,,2013-05-30 04:42:00,
2013-05-29 23:53:00,72.0,64.0,-100.00,SSE,150,10.0,21.0,75,0.00,,,-99.99,,2013-05-30 04:53:00,